Time,TemperatureF,DewpointF,PressureIn,WindDirection,WindDirectionDegrees,WindSpeedMPH,WindSpeedGustMPH,Humidity,HourlyPrecipIn,Conditions,Clouds,dailyrainin,SoftwareType,DateUTC
2013-03-02 00:03:00,32.5,21.3,30.41,NNW,335,8.0,15.0,63,0.00,,,0.00,Weather View 32 v70,2013-03-02 06:03:00,
2013-03-02 00:13:00,32.5,21.3,30.41,NW,318,5.0,15.0,63,0.00,,,0.00,Weather View 32 v70,2013-03-02 06:13:00,
2013-03-02 00:18:00,32.6,21.4,30.41,North,354,12.0,15.0,63,0.00,,,0.00,Weather View 32 v70,2013-03-02 06:18:00,
2013-03-02 00:23:00,32.5,20.9,30.41,NNW,342,8.0,17.0,62,0.00,,,0.00,Weather View 32 v70,2013-03-02 06:23:00,
2013-03-02 00:28:00,32.5,20.9,30.41,North,350,8.0,17.0,62,0.00,,,0.00,Weather View 32 v70,2013-03-02 06:28:00,
2013-03-02 00:38:00,32.5,21.3,30.41,NNW,332,8.0,17.0,63,0.00,,,0.00,Weather View 32 v70,2013-03-02 06:38:00,
2013-03-02 00:43:00,32.5,20.5,30.41,NNW,330,7.0,17.0,61,0.00,,,0.00,Weather View 32 v70,2013-03-02 06:43:00,
2013-03-02 00:48:00,32.5,20.5,30.41,NNW,345,8.0,17.0,61,0.00,,,0.00,Weather View 32 v70,2013-03-02 06:48:00,
2013-03-02 00:58:00,32.5,19.8,30.41,North,354,8.0,17.0,59,0.00,,,0.00,Weather View 32 v70,2013-03-02 06:58:00,
2013-03-02 01:03:00,32.4,20.1,30.41,NNW,336,10.0,17.0,60,0.00,,,0.00,Weather View 32 v70,2013-03-02 07:03:00,
2013-03-02 01:08:00,32.5,20.5,30.41,NNW,329,12.0,17.0,61,0.00,,,0.00,Weather View 32 v70,2013-03-02 07:08:00,
2013-03-02 01:18:00,32.5,20.1,30.41,North,354,4.0,17.0,60,0.00,,,0.00,Weather View 32 v70,2013-03-02 07:18:00,
2013-03-02 01:23:00,32.5,20.1,30.41,North,4,9.0,17.0,60,0.00,,,0.00,Weather View 32 v70,2013-03-02 07:23:00,
2013-03-02 01:33:00,32.4,20.1,30.41,NNW,333,8.0,17.0,60,0.00,,,0.00,Weather View 32 v70,2013-03-02 07:33:00,
2013-03-02 01:43:00,32.4,20.1,30.41,North,354,11.0,17.0,60,0.00,,,0.00,Weather View 32 v70,2013-03-02 07:43:00,
2013-03-02 01:48:00,32.4,20.1,30.41,NNW,348,11.0,17.0,60,0.00,,,0.00,Weather View 32 v70,2013-03-02 07:48:00,
2013-03-02 01:53:00,32.4,20.1,30.41,NNW,345,10.0,17.0,60,0.00,,,0.00,Weather View 32 v70,2013-03-02 07:53:00,
2013-03-02 02:03:00,32.4,19.7,30.41,North,349,12.0,17.0,59,0.00,,,0.00,Weather View 32 v70,2013-03-02 08:03:00,
2013-03-02 02:08:00,32.3,19.2,30.41,NNW,328,9.0,20.0,58,0.00,,,0.00,Weather View 32 v70,2013-03-02 08:08:00,
2013-03-02 02:13:00,32.4,19.7,30.41,North,354,13.0,20.0,59,0.00,,,0.00,Weather View 32 v70,2013-03-02 08:13:00,
2013-03-02 02:23:00,32.3,19.6,30.41,North,349,5.0,20.0,59,0.00,,,0.00,Weather View 32 v70,2013-03-02 08:23:00,
2013-03-02 02:28:00,32.3,19.6,30.41,NNE,18,11.0,20.0,59,0.00,,,0.00,Weather View 32 v70,2013-03-02 08:28:00,
2013-03-02 02:38:00,32.2,19.9,30.41,North,350,10.0,20.0,60,0.00,,,0.00,Weather View 32 v70,2013-03-02 08:38:00,
2013-03-02 02:43:00,32.2,19.9,30.41,North,349,7.0,20.0,60,0.00,,,0.00,Weather View 32 v70,2013-03-02 08:43:00,
2013-03-02 02:53:00,32.2,20.3,30.41,North,354,7.0,20.0,61,0.00,,,0.00,Weather View 32 v70,2013-03-02 08:53:00,
2013-03-02 02:58:00,32.2,20.3,30.41,NNW,339,9.0,20.0,61,0.00,,,0.00,Weather View 32 v70,2013-03-02 08:58:00,
2013-03-02 03:03:00,32.1,20.2,30.40,North,354,8.0,20.0,61,0.00,,,0.00,Weather View 32 v70,2013-03-02 09:03:00,
2013-03-02 03:08:00,32.1,20.2,30.41,NNE,12,10.0,19.0,61,0.00,,,0.00,Weather View 32 v70,2013-03-02 09:08:00,
2013-03-02 03:18:00,32.0,20.1,30.40,NNW,330,17.0,19.0,61,0.00,,,0.00,Weather View 32 v70,2013-03-02 09:18:00,
2013-03-02 03:23:00,32.0,20.1,30.40,NNW,347,3.0,19.0,61,0.00,,,0.00,Weather View 32 v70,2013-03-02 09:23:00,
2013-03-02 03:28:00,32.0,20.1,30.40,NNW,346,11.0,17.0,61,0.00,,,0.00,Weather View 32 v70,2013-03-02 09:28:00,
2013-03-02 03:38:00,31.9,20.4,30.40,North,354,8.0,17.0,62,0.00,,,0.00,Weather View 32 v70,2013-03-02 09:38:00,
2013-03-02 03:44:00,31.9,20.4,30.40,NNW,328,10.0,17.0,62,0.00,,,0.00,Weather View 32 v70,2013-03-02 09:44:00,
2013-03-02 03:53:00,31.9,20.4,30.40,NNW,348,8.0,17.0,62,0.00,,,0.00,Weather View 32 v70,2013-03-02 09:53:00,
2013-03-02 04:03:00,31.9,20.4,30.40,North,349,3.0,17.0,62,0.00,,,0.00,Weather View 32 v70,2013-03-02 10:03:00,
2013-03-02 04:18:00,31.8,20.3,30.40,North,354,7.0,17.0,62,0.00,,,0.00,Weather View 32 v70,2013-03-02 10:18:00,
2013-03-02 04:28:00,31.8,20.3,30.41,NNW,339,8.0,15.0,62,0.00,,,0.00,Weather View 32 v70,2013-03-02 10:28:00,
2013-03-02 04:33:00,31.7,20.2,30.41,North,354,9.0,14.0,62,0.00,,,0.00,Weather View 32 v70,2013-03-02 10:33:00,
2013-03-02 04:39:00,31.7,20.5,30.41,NNW,347,6.0,14.0,63,0.00,,,0.00,Weather View 32 v70,2013-03-02 10:39:00,
2013-03-02 04:44:00,31.7,20.5,30.41,NNW,332,8.0,14.0,63,0.00,,,0.00,Weather View 32 v70,2013-03-02 10:44:00,
2013-03-02 04:53:00,31.6,20.4,30.41,NNW,337,5.0,14.0,63,0.00,,,0.00,Weather View 32 v70,2013-03-02 10:53:00,
2013-03-02 04:58:00,31.6,20.4,30.41,NNW,338,2.0,14.0,63,0.00,,,0.00,Weather View 32 v70,2013-03-02 10:58:00,
2013-03-02 05:03:00,31.6,20.4,30.41,NNW,337,8.0,14.0,63,0.00,,,0.00,Weather View 32 v70,2013-03-02 11:03:00,
2013-03-02 05:08:00,31.6,20.4,30.41,NNW,345,2.0,14.0,63,0.00,,,0.00,Weather View 32 v70,2013-03-02 11:08:00,
2013-03-02 05:13:00,31.6,20.4,30.42,NW,324,3.0,14.0,63,0.00,,,0.00,Weather View 32 v70,2013-03-02 11:13:00,
2013-03-02 05:18:00,31.6,20.4,30.42,NNW,328,5.0,13.0,63,0.00,,,0.00,Weather View 32 v70,2013-03-02 11:18:00,
2013-03-02 05:23:00,31.6,20.8,30.42,NW,315,5.0,13.0,64,0.00,,,0.00,Weather View 32 v70,2013-03-02 11:23:00,
2013-03-02 05:28:00,31.5,20.7,30.42,NW,306,4.0,13.0,64,0.00,,,0.00,Weather View 32 v70,2013-03-02 11:28:00,
2013-03-02 05:33:00,31.3,20.9,30.42,NNW,330,7.0,13.0,65,0.00,,,0.00,Weather View 32 v70,2013-03-02 11:33:00,
2013-03-02 05:38:00,31.2,20.8,30.42,NW,308,9.0,13.0,65,0.00,,,0.00,Weather View 32 v70,2013-03-02 11:38:00,
2013-03-02 05:45:00,31.2,21.2,30.42,NW,326,8.0,13.0,66,0.00,,,0.00,Weather View 32 v70,2013-03-02 11:45:00,
2013-03-02 05:53:00,31.0,21.0,30.43,NW,320,7.0,12.0,66,0.00,,,0.00,Weather View 32 v70,2013-03-02 11:53:00,
2013-03-02 05:58:00,30.9,20.9,30.43,NNW,332,4.0,12.0,66,0.00,,,0.00,Weather View 32 v70,2013-03-02 11:58:00,
2013-03-02 06:03:00,30.8,20.8,30.43,NW,319,4.0,12.0,66,0.00,,,0.00,Weather View 32 v70,2013-03-02 12:03:00,
2013-03-02 06:08:00,30.8,20.8,30.43,NW,322,8.0,12.0,66,0.00,,,0.00,Weather View 32 v70,2013-03-02 12:08:00,
2013-03-02 06:13:00,30.7,20.7,30.43,NNW,341,6.0,12.0,66,0.00,,,0.00,Weather View 32 v70,2013-03-02 12:13:00,
2013-03-02 06:18:00,30.6,20.6,30.43,NNW,347,4.0,12.0,66,0.00,,,0.00,Weather View 32 v70,2013-03-02 12:18:00,
2013-03-02 06:28:00,30.4,20.4,30.43,NNW,330,3.0,12.0,66,0.00,,,0.00,Weather View 32 v70,2013-03-02 12:28:00,
2013-03-02 06:33:00,30.2,20.2,30.44,NNW,343,6.0,12.0,66,0.00,,,0.00,Weather View 32 v70,2013-03-02 12:33:00,
2013-03-02 06:38:00,30.1,19.8,30.44,NNW,328,8.0,12.0,65,0.00,,,0.00,Weather View 32 v70,2013-03-02 12:38:00,
2013-03-02 06:45:00,30.0,20.0,30.44,NNW,339,7.0,12.0,66,0.00,,,0.00,Weather View 32 v70,2013-03-02 12:45:00,
2013-03-02 06:53:00,29.8,19.8,30.44,NNW,337,3.0,12.0,66,0.00,,,0.00,Weather View 32 v70,2013-03-02 12:53:00,
2013-03-02 07:03:00,29.6,20.0,30.44,NNW,327,6.0,12.0,67,0.00,,,0.00,Weather View 32 v70,2013-03-02 13:03:00,
2013-03-02 07:08:00,29.5,20.2,30.44,NW,322,5.0,12.0,68,0.00,,,0.00,Weather View 32 v70,2013-03-02 13:08:00,
2013-03-02 07:18:00,29.4,20.1,30.44,NW,310,5.0,12.0,68,0.00,,,0.00,Weather View 32 v70,2013-03-02 13:18:00,
2013-03-02 07:28:00,29.3,20.7,30.45,NW,312,6.0,12.0,70,0.00,,,0.00,Weather View 32 v70,2013-03-02 13:28:00,
2013-03-02 07:33:00,29.2,20.6,30.45,NW,318,3.0,12.0,70,0.00,,,0.00,Weather View 32 v70,2013-03-02 13:33:00,
2013-03-02 07:38:00,29.2,21.0,30.45,NW,305,6.0,11.0,71,0.00,,,0.00,Weather View 32 v70,2013-03-02 13:38:00,
2013-03-02 07:43:00,29.2,21.0,30.46,NW,317,7.0,10.0,71,0.00,,,0.00,Weather View 32 v70,2013-03-02 13:43:00,
2013-03-02 07:48:00,29.2,21.0,30.46,NW,313,3.0,9.0,71,0.00,,,0.00,Weather View 32 v70,2013-03-02 13:48:00,
2013-03-02 07:58:00,29.4,21.2,30.46,NNW,329,7.0,11.0,71,0.00,,,0.00,Weather View 32 v70,2013-03-02 13:58:00,
2013-03-02 08:03:00,29.4,20.8,30.46,NNW,339,10.0,12.0,70,0.00,,,0.00,Weather View 32 v70,2013-03-02 14:03:00,
2013-03-02 08:08:00,29.4,20.8,30.46,NNW,332,7.0,12.0,70,0.00,,,0.00,Weather View 32 v70,2013-03-02 14:08:00,
2013-03-02 08:18:00,29.5,20.9,30.46,NNW,332,5.0,12.0,70,0.00,,,0.00,Weather View 32 v70,2013-03-02 14:18:00,
2013-03-02 08:28:00,29.9,21.0,30.47,NW,323,7.0,12.0,69,0.00,,,0.00,Weather View 32 v70,2013-03-02 14:28:00,
2013-03-02 08:33:00,30.0,21.1,30.47,NNW,330,4.0,12.0,69,0.00,,,0.00,Weather View 32 v70,2013-03-02 14:33:00,
2013-03-02 08:38:00,30.3,21.3,30.47,North,8,7.0,12.0,69,0.00,,,0.00,Weather View 32 v70,2013-03-02 14:38:00,
2013-03-02 08:47:00,30.5,21.2,30.47,NNW,343,8.0,12.0,68,0.00,,,0.00,Weather View 32 v70,2013-03-02 14:47:00,
2013-03-02 08:53:00,30.9,20.9,30.47,North,354,10.0,12.0,66,0.00,,,0.00,Weather View 32 v70,2013-03-02 14:53:00,
2013-03-02 08:58:00,31.1,21.1,30.47,NNW,343,11.0,12.0,66,0.00,,,0.00,Weather View 32 v70,2013-03-02 14:58:00,
2013-03-02 09:03:00,31.1,21.1,30.47,North,354,6.0,12.0,66,0.00,,,0.00,Weather View 32 v70,2013-03-02 15:03:00,
2013-03-02 09:08:00,31.1,20.7,30.47,NNW,330,6.0,12.0,65,0.00,,,0.00,Weather View 32 v70,2013-03-02 15:08:00,
2013-03-02 09:18:00,31.8,21.0,30.48,NNW,346,8.0,12.0,64,0.00,,,0.00,Weather View 32 v70,2013-03-02 15:18:00,
2013-03-02 09:28:00,31.9,20.7,30.48,NNW,347,13.0,13.0,63,0.00,,,0.00,Weather View 32 v70,2013-03-02 15:28:00,
2013-03-02 09:38:00,31.9,20.4,30.48,NNW,346,5.0,13.0,62,0.00,,,0.00,Weather View 32 v70,2013-03-02 15:38:00,
2013-03-02 09:43:00,32.3,20.3,30.47,North,359,8.0,13.0,61,0.00,,,0.00,Weather View 32 v70,2013-03-02 15:43:00,
2013-03-02 09:48:00,32.4,20.4,30.46,North,8,7.0,13.0,61,0.00,,,0.00,Weather View 32 v70,2013-03-02 15:48:00,
2013-03-02 09:58:00,32.8,20.4,30.46,NNW,342,7.0,13.0,60,0.00,,,0.00,Weather View 32 v70,2013-03-02 15:58:00,
2013-03-02 10:03:00,33.2,20.8,30.46,NNW,339,7.0,13.0,60,0.00,,,0.00,Weather View 32 v70,2013-03-02 16:03:00,
2013-03-02 10:08:00,33.5,21.1,30.46,North,354,7.0,13.0,60,0.00,,,0.00,Weather View 32 v70,2013-03-02 16:08:00,
2013-03-02 10:18:00,33.8,21.0,30.45,NW,326,5.0,13.0,59,0.00,,,0.00,Weather View 32 v70,2013-03-02 16:18:00,
2013-03-02 10:28:00,33.6,20.8,30.46,NNW,332,9.0,13.0,59,0.00,,,0.00,Weather View 32 v70,2013-03-02 16:28:00,
2013-03-02 10:33:00,33.8,21.0,30.46,North,354,2.0,13.0,59,0.00,,,0.00,Weather View 32 v70,2013-03-02 16:33:00,
2013-03-02 10:38:00,34.1,21.3,30.46,NW,312,6.0,15.0,59,0.00,,,0.00,Weather View 32 v70,2013-03-02 16:38:00,
2013-03-02 10:48:00,34.6,21.3,30.46,North,354,4.0,15.0,58,0.00,,,0.00,Weather View 32 v70,2013-03-02 16:48:00,
2013-03-02 10:53:00,34.3,20.6,30.45,North,4,2.0,15.0,57,0.00,,,0.00,Weather View 32 v70,2013-03-02 16:53:00,
2013-03-02 10:58:00,35.0,21.7,30.45,North,4,4.0,15.0,58,0.00,,,0.00,Weather View 32 v70,2013-03-02 16:58:00,
2013-03-02 11:03:00,35.1,21.0,30.45,NNW,335,5.0,15.0,56,0.00,,,0.00,Weather View 32 v70,2013-03-02 17:03:00,
2013-03-02 11:08:00,35.3,21.2,30.45,NNW,334,2.0,15.0,56,0.00,,,0.00,Weather View 32 v70,2013-03-02 17:08:00,
2013-03-02 11:13:00,35.5,20.9,30.45,North,4,3.0,15.0,55,0.00,,,0.00,Weather View 32 v70,2013-03-02 17:13:00,
2013-03-02 11:18:00,35.9,20.9,30.45,NW,314,6.0,15.0,54,0.00,,,0.00,Weather View 32 v70,2013-03-02 17:18:00,
2013-03-02 11:23:00,36.0,21.0,30.45,NNW,328,7.0,15.0,54,0.00,,,0.00,Weather View 32 v70,2013-03-02 17:23:00,
2013-03-02 11:33:00,36.4,20.9,30.45,North,354,4.0,15.0,53,0.00,,,0.00,Weather View 32 v70,2013-03-02 17:33:00,
2013-03-02 11:38:00,36.6,21.1,30.44,NW,320,7.0,15.0,53,0.00,,,0.00,Weather View 32 v70,2013-03-02 17:38:00,
2013-03-02 11:48:00,36.9,20.4,30.44,NW,319,7.0,12.0,51,0.00,,,0.00,Weather View 32 v70,2013-03-02 17:48:00,
2013-03-02 11:53:00,36.8,20.8,30.44,NNW,327,2.0,12.0,52,0.00,,,0.00,Weather View 32 v70,2013-03-02 17:53:00,
2013-03-02 12:03:00,37.2,21.2,30.43,NNW,348,0.0,12.0,52,0.00,,,0.00,Weather View 32 v70,2013-03-02 18:03:00,
2013-03-02 12:08:00,37.8,21.3,30.43,North,349,0.0,12.0,51,0.00,,,0.00,Weather View 32 v70,2013-03-02 18:08:00,
2013-03-02 12:18:00,38.1,20.6,30.43,NW,317,0.0,12.0,49,0.00,,,0.00,Weather View 32 v70,2013-03-02 18:18:00,
2013-03-02 12:23:00,38.4,21.4,30.43,NW,322,4.0,12.0,50,0.00,,,0.00,Weather View 32 v70,2013-03-02 18:23:00,
2013-03-02 12:33:00,39.0,21.4,30.42,North,354,0.0,12.0,49,0.00,,,0.00,Weather View 32 v70,2013-03-02 18:33:00,
2013-03-02 12:38:00,39.0,20.9,30.42,West,279,0.0,12.0,48,0.00,,,0.00,Weather View 32 v70,2013-03-02 18:38:00,
2013-03-02 12:43:00,38.9,20.9,30.42,NNW,336,0.0,11.0,48,0.00,,,0.00,Weather View 32 v70,2013-03-02 18:43:00,
2013-03-02 12:49:00,39.3,20.7,30.41,NNW,335,3.0,11.0,47,0.00,,,0.00,Weather View 32 v70,2013-03-02 18:49:00,
2013-03-02 12:58:00,40.2,21.0,30.41,WNW,302,0.0,11.0,46,0.00,,,0.00,Weather View 32 v70,2013-03-02 18:58:00,
2013-03-02 13:08:00,40.4,20.7,30.40,NNE,12,3.0,11.0,45,0.00,,,0.00,Weather View 32 v70,2013-03-02 19:08:00,
2013-03-02 13:13:00,40.2,20.5,30.40,North,8,5.0,11.0,45,0.00,,,0.00,Weather View 32 v70,2013-03-02 19:13:00,
2013-03-02 13:18:00,40.5,20.8,30.39,NW,308,0.0,11.0,45,0.00,,,0.00,Weather View 32 v70,2013-03-02 19:18:00,
2013-03-02 13:28:00,41.3,20.5,30.39,NNE,15,0.0,11.0,43,0.00,,,0.00,Weather View 32 v70,2013-03-02 19:28:00,
2013-03-02 13:33:00,41.8,20.4,30.39,NNW,328,1.0,11.0,42,0.00,,,0.00,Weather View 32 v70,2013-03-02 19:33:00,
2013-03-02 13:38:00,42.0,20.5,30.39,NW,306,2.0,11.0,42,0.00,,,0.00,Weather View 32 v70,2013-03-02 19:38:00,
2013-03-02 13:48:00,42.3,20.8,30.38,NW,315,0.0,11.0,42,0.00,,,0.00,Weather View 32 v70,2013-03-02 19:48:00,
2013-03-02 13:53:00,42.8,20.7,30.38,NW,315,0.0,11.0,41,0.00,,,0.00,Weather View 32 v70,2013-03-02 19:53:00,
2013-03-02 13:58:00,43.1,19.8,30.38,NNW,331,0.0,11.0,39,0.00,,,0.00,Weather View 32 v70,2013-03-02 19:58:00,
2013-03-02 14:03:00,43.3,20.0,30.38,North,359,1.0,11.0,39,0.00,,,0.00,Weather View 32 v70,2013-03-02 20:03:00,
2013-03-02 14:08:00,43.6,20.2,30.38,North,354,0.0,11.0,39,0.00,,,0.00,Weather View 32 v70,2013-03-02 20:08:00,
2013-03-02 14:18:00,43.8,19.8,30.38,NNW,348,0.0,11.0,38,0.00,,,0.00,Weather View 32 v70,2013-03-02 20:18:00,
2013-03-02 14:23:00,43.9,19.3,30.38,NNW,337,1.0,11.0,37,0.00,,,0.00,Weather View 32 v70,2013-03-02 20:23:00,
2013-03-02 14:28:00,44.0,19.4,30.37,NW,305,0.0,11.0,37,0.00,,,0.00,Weather View 32 v70,2013-03-02 20:28:00,
2013-03-02 14:38:00,44.2,20.2,30.37,West,274,0.0,11.0,38,0.00,,,0.00,Weather View 32 v70,2013-03-02 20:38:00,
2013-03-02 14:48:00,44.5,19.8,30.37,WNW,288,0.0,11.0,37,0.00,,,0.00,Weather View 32 v70,2013-03-02 20:48:00,
2013-03-02 14:53:00,44.8,20.1,30.36,NNW,336,7.0,11.0,37,0.00,,,0.00,Weather View 32 v70,2013-03-02 20:53:00,
2013-03-02 15:03:00,44.9,19.5,30.36,WNW,297,0.0,10.0,36,0.00,,,0.00,Weather View 32 v70,2013-03-02 21:03:00,
2013-03-02 15:08:00,45.0,19.6,30.36,NW,313,0.0,10.0,36,0.00,,,0.00,Weather View 32 v70,2013-03-02 21:08:00,
2013-03-02 15:18:00,45.6,20.1,30.36,WSW,253,0.0,10.0,36,0.00,,,0.00,Weather View 32 v70,2013-03-02 21:18:00,
2013-03-02 15:28:00,45.7,20.2,30.35,WNW,293,5.0,10.0,36,0.00,,,0.00,Weather View 32 v70,2013-03-02 21:28:00,
2013-03-02 15:38:00,46.0,20.5,30.35,NNW,330,0.0,10.0,36,0.00,,,0.00,Weather View 32 v70,2013-03-02 21:38:00,
2013-03-02 15:48:00,46.4,19.5,30.35,North,354,0.0,8.0,34,0.00,,,0.00,Weather View 32 v70,2013-03-02 21:48:00,
2013-03-02 15:53:00,46.3,19.4,30.35,North,354,0.0,8.0,34,0.00,,,0.00,Weather View 32 v70,2013-03-02 21:53:00,
2013-03-02 15:58:00,46.3,19.4,30.34,NNW,343,0.0,8.0,34,0.00,,,0.00,Weather View 32 v70,2013-03-02 21:58:00,
2013-03-02 16:03:00,46.5,19.6,30.34,North,4,0.0,8.0,34,0.00,,,0.00,Weather View 32 v70,2013-03-02 22:03:00,
2013-03-02 16:08:00,46.6,19.7,30.34,NNW,343,0.0,8.0,34,0.00,,,0.00,Weather View 32 v70,2013-03-02 22:08:00,
2013-03-02 16:13:00,46.6,19.7,30.35,North,4,0.0,8.0,34,0.00,,,0.00,Weather View 32 v70,2013-03-02 22:13:00,
2013-03-02 16:18:00,46.6,19.7,30.35,NNW,347,0.0,8.0,34,0.00,,,0.00,Weather View 32 v70,2013-03-02 22:18:00,
2013-03-02 16:23:00,46.7,20.5,30.35,North,359,0.0,8.0,35,0.00,,,0.00,Weather View 32 v70,2013-03-02 22:23:00,
2013-03-02 16:28:00,46.7,19.8,30.34,NW,307,0.0,8.0,34,0.00,,,0.00,Weather View 32 v70,2013-03-02 22:28:00,
2013-03-02 16:33:00,46.9,20.0,30.34,North,4,0.0,8.0,34,0.00,,,0.00,Weather View 32 v70,2013-03-02 22:33:00,
2013-03-02 16:38:00,46.9,20.6,30.34,North,4,0.0,8.0,35,0.00,,,0.00,Weather View 32 v70,2013-03-02 22:38:00,
2013-03-02 16:48:00,46.8,20.5,30.33,North,8,0.0,8.0,35,0.00,,,0.00,Weather View 32 v70,2013-03-02 22:48:00,
2013-03-02 16:54:00,46.9,20.0,30.33,North,4,0.0,8.0,34,0.00,,,0.00,Weather View 32 v70,2013-03-02 22:54:00,
2013-03-02 17:03:00,47.8,20.7,30.33,NW,326,0.0,8.0,34,0.00,,,0.00,Weather View 32 v70,2013-03-02 23:03:00,
2013-03-02 17:08:00,47.9,20.8,30.33,NNW,332,0.0,8.0,34,0.00,,,0.00,Weather View 32 v70,2013-03-02 23:08:00,
2013-03-02 17:18:00,47.6,20.6,30.33,NNW,332,0.0,2.0,34,0.00,,,0.00,Weather View 32 v70,2013-03-02 23:18:00,
2013-03-02 17:23:00,47.6,20.6,30.33,WNW,303,0.0,1.0,34,0.00,,,0.00,Weather View 32 v70,2013-03-02 23:23:00,
2013-03-02 17:28:00,47.6,20.6,30.33,WNW,295,0.0,7.0,34,0.00,,,0.00,Weather View 32 v70,2013-03-02 23:28:00,
2013-03-02 17:33:00,47.8,20.7,30.33,WNW,296,0.0,7.0,34,0.00,,,0.00,Weather View 32 v70,2013-03-02 23:33:00,
2013-03-02 17:38:00,47.7,20.7,30.33,WNW,296,0.0,7.0,34,0.00,,,0.00,Weather View 32 v70,2013-03-02 23:38:00,
2013-03-02 17:48:00,47.2,20.2,30.33,NNW,340,0.0,7.0,34,0.00,,,0.00,Weather View 32 v70,2013-03-02 23:48:00,
2013-03-02 17:53:00,47.0,20.7,30.33,NNW,342,0.0,7.0,35,0.00,,,0.00,Weather View 32 v70,2013-03-02 23:53:00,
2013-03-02 17:58:00,46.9,20.6,30.33,NNW,342,0.0,7.0,35,0.00,,,0.00,Weather View 32 v70,2013-03-02 23:58:00,
2013-03-02 18:03:00,46.7,20.5,30.33,NNW,342,0.0,7.0,35,0.00,,,0.00,Weather View 32 v70,2013-03-03 00:03:00,
2013-03-02 18:08:00,46.6,20.4,30.32,NNW,342,0.0,7.0,35,0.00,,,0.00,Weather View 32 v70,2013-03-03 00:08:00,
2013-03-02 18:18:00,45.9,21.1,30.32,NNW,342,0.0,7.0,37,0.00,,,0.00,Weather View 32 v70,2013-03-03 00:18:00,
2013-03-02 18:23:00,45.6,21.4,30.32,NNW,342,0.0,7.0,38,0.00,,,0.00,Weather View 32 v70,2013-03-03 00:23:00,
2013-03-02 18:33:00,44.7,21.2,30.32,North,350,0.0,1.0,39,0.00,,,0.00,Weather View 32 v70,2013-03-03 00:33:00,
2013-03-02 18:38:00,44.5,21.6,30.32,North,354,0.0,1.0,40,0.00,,,0.00,Weather View 32 v70,2013-03-03 00:38:00,
2013-03-02 18:43:00,44.4,21.6,30.32,North,354,0.0,1.0,40,0.00,,,0.00,Weather View 32 v70,2013-03-03 00:43:00,
2013-03-02 18:48:00,44.2,21.4,30.32,North,354,0.0,1.0,40,0.00,,,0.00,Weather View 32 v70,2013-03-03 00:48:00,
2013-03-02 18:53:00,44.1,21.3,30.32,North,354,0.0,0.0,40,0.00,,,0.00,Weather View 32 v70,2013-03-03 00:53:00,
2013-03-02 18:58:00,44.0,21.8,30.32,North,354,0.0,0.0,41,0.00,,,0.00,Weather View 32 v70,2013-03-03 00:58:00,
2013-03-02 19:03:00,43.9,21.7,30.32,North,354,0.0,0.0,41,0.00,,,0.00,Weather View 32 v70,2013-03-03 01:03:00,
2013-03-02 19:08:00,43.8,22.2,30.33,North,354,0.0,0.0,42,0.00,,,0.00,Weather View 32 v70,2013-03-03 01:08:00,
2013-03-02 19:13:00,43.7,22.1,30.32,North,354,0.0,0.0,42,0.00,,,0.00,Weather View 32 v70,2013-03-03 01:13:00,
2013-03-02 19:18:00,43.5,21.9,30.32,North,354,0.0,0.0,42,0.00,,,0.00,Weather View 32 v70,2013-03-03 01:18:00,
2013-03-02 19:28:00,43.2,22.2,30.32,North,354,0.0,0.0,43,0.00,,,0.00,Weather View 32 v70,2013-03-03 01:28:00,
2013-03-02 19:38:00,42.9,21.9,30.32,North,354,0.0,0.0,43,0.00,,,0.00,Weather View 32 v70,2013-03-03 01:38:00,
2013-03-02 19:48:00,42.6,22.2,30.32,North,354,0.0,0.0,44,0.00,,,0.00,Weather View 32 v70,2013-03-03 01:48:00,
2013-03-02 19:53:00,42.4,22.0,30.32,North,354,0.0,0.0,44,0.00,,,0.00,Weather View 32 v70,2013-03-03 01:53:00,
2013-03-02 19:58:00,42.3,21.9,30.32,North,354,0.0,0.0,44,0.00,,,0.00,Weather View 32 v70,2013-03-03 01:58:00,
2013-03-02 20:03:00,42.2,21.8,30.32,North,354,0.0,0.0,44,0.00,,,0.00,Weather View 32 v70,2013-03-03 02:03:00,
2013-03-02 20:08:00,42.0,21.6,30.32,North,354,0.0,0.0,44,0.00,,,0.00,Weather View 32 v70,2013-03-03 02:08:00,
2013-03-02 20:18:00,41.6,21.8,30.32,North,354,0.0,0.0,45,0.00,,,0.00,Weather View 32 v70,2013-03-03 02:18:00,
2013-03-02 20:23:00,41.4,21.6,30.32,North,354,0.0,0.0,45,0.00,,,0.00,Weather View 32 v70,2013-03-03 02:23:00,
2013-03-02 20:28:00,41.2,21.4,30.32,North,350,0.0,0.0,45,0.00,,,0.00,Weather View 32 v70,2013-03-03 02:28:00,
2013-03-02 20:33:00,41.0,21.8,30.32,North,354,0.0,0.0,46,0.00,,,0.00,Weather View 32 v70,2013-03-03 02:33:00,
2013-03-02 20:38:00,40.8,21.6,30.32,North,354,0.0,0.0,46,0.00,,,0.00,Weather View 32 v70,2013-03-03 02:38:00,
2013-03-02 20:48:00,40.5,21.8,30.32,North,354,0.0,0.0,47,0.00,,,0.00,Weather View 32 v70,2013-03-03 02:48:00,
2013-03-02 20:53:00,40.4,21.7,30.32,North,354,0.0,0.0,47,0.00,,,0.00,Weather View 32 v70,2013-03-03 02:53:00,
2013-03-02 20:58:00,40.3,21.6,30.32,North,354,0.0,0.0,47,0.00,,,0.00,Weather View 32 v70,2013-03-03 02:58:00,
2013-03-02 21:03:00,40.1,22.0,30.32,North,354,0.0,0.0,48,0.00,,,0.00,Weather View 32 v70,2013-03-03 03:03:00,
2013-03-02 21:08:00,40.0,21.9,30.31,North,350,0.0,0.0,48,0.00,,,0.00,Weather View 32 v70,2013-03-03 03:08:00,
2013-03-02 21:13:00,39.8,21.7,30.32,North,354,0.0,0.0,48,0.00,,,0.00,Weather View 32 v70,2013-03-03 03:13:00,
2013-03-02 21:18:00,39.7,22.1,30.32,North,354,0.0,0.0,49,0.00,,,0.00,Weather View 32 v70,2013-03-03 03:18:00,
2013-03-02 21:28:00,39.4,22.3,30.32,North,354,0.0,0.0,50,0.00,,,0.00,Weather View 32 v70,2013-03-03 03:28:00,
2013-03-02 21:33:00,39.2,22.1,30.32,North,354,0.0,0.0,50,0.00,,,0.00,Weather View 32 v70,2013-03-03 03:33:00,
2013-03-02 21:38:00,39.0,22.4,30.31,North,354,0.0,0.0,51,0.00,,,0.00,Weather View 32 v70,2013-03-03 03:38:00,
2013-03-02 21:43:00,38.8,22.2,30.31,North,354,0.0,0.0,51,0.00,,,0.00,Weather View 32 v70,2013-03-03 03:43:00,
2013-03-02 21:48:00,38.8,22.2,30.31,North,354,0.0,0.0,51,0.00,,,0.00,Weather View 32 v70,2013-03-03 03:48:00,
2013-03-02 21:54:00,38.7,22.6,30.31,North,350,0.0,0.0,52,0.00,,,0.00,Weather View 32 v70,2013-03-03 03:54:00,
2013-03-02 22:03:00,38.5,22.4,30.31,North,354,0.0,0.0,52,0.00,,,0.00,Weather View 32 v70,2013-03-03 04:03:00,
2013-03-02 22:13:00,38.4,22.3,30.30,North,354,0.0,0.0,52,0.00,,,0.00,Weather View 32 v70,2013-03-03 04:13:00,
2013-03-02 22:18:00,38.4,22.3,30.30,North,354,0.0,0.0,52,0.00,,,0.00,Weather View 32 v70,2013-03-03 04:18:00,
2013-03-02 22:23:00,38.5,22.4,30.30,North,354,0.0,0.0,52,0.00,,,0.00,Weather View 32 v70,2013-03-03 04:23:00,
2013-03-02 22:28:00,38.5,22.4,30.30,North,354,0.0,0.0,52,0.00,,,0.00,Weather View 32 v70,2013-03-03 04:28:00,
2013-03-02 22:38:00,38.3,22.2,30.29,North,354,0.0,0.0,52,0.00,,,0.00,Weather View 32 v70,2013-03-03 04:38:00,
2013-03-02 22:43:00,38.3,22.2,30.29,North,354,0.0,0.0,52,0.00,,,0.00,Weather View 32 v70,2013-03-03 04:43:00,
2013-03-02 22:53:00,38.3,22.2,30.29,North,10,0.0,0.0,52,0.00,,,0.00,Weather View 32 v70,2013-03-03 04:53:00,
2013-03-02 22:58:00,38.3,22.2,30.29,North,11,0.0,0.0,52,0.00,,,0.00,Weather View 32 v70,2013-03-03 04:58:00,
2013-03-02 23:03:00,38.2,22.1,30.29,NNE,24,0.0,0.0,52,0.00,,,0.00,Weather View 32 v70,2013-03-03 05:03:00,
2013-03-02 23:08:00,38.2,22.6,30.29,NNE,30,0.0,0.0,53,0.00,,,0.00,Weather View 32 v70,2013-03-03 05:08:00,
2013-03-02 23:13:00,38.0,22.4,30.29,NNE,30,0.0,0.0,53,0.00,,,0.00,Weather View 32 v70,2013-03-03 05:13:00,
2013-03-02 23:18:00,37.9,22.3,30.29,NNE,31,0.0,0.0,53,0.00,,,0.00,Weather View 32 v70,2013-03-03 05:18:00,
2013-03-02 23:23:00,37.7,22.5,30.29,NNE,31,0.0,0.0,54,0.00,,,0.00,Weather View 32 v70,2013-03-03 05:23:00,
2013-03-02 23:28:00,37.6,22.4,30.28,NNE,31,0.0,0.0,54,0.00,,,0.00,Weather View 32 v70,2013-03-03 05:28:00,
2013-03-02 23:33:00,37.4,22.7,30.28,NNE,31,0.0,0.0,55,0.00,,,0.00,Weather View 32 v70,2013-03-03 05:33:00,
2013-03-02 23:38:00,37.2,22.5,30.27,NNE,31,0.0,0.0,55,0.00,,,0.00,Weather View 32 v70,2013-03-03 05:38:00,
2013-03-02 23:43:00,37.0,22.7,30.27,NNE,31,0.0,0.0,56,0.00,,,0.00,Weather View 32 v70,2013-03-03 05:43:00,
2013-03-02 23:53:00,36.7,22.9,30.27,NNE,31,0.0,0.0,57,0.00,,,0.00,Weather View 32 v70,2013-03-03 05:53:00,
2013-03-02 23:58:00,36.6,22.8,30.26,NNE,31,0.0,0.0,57,0.00,,,0.00,Weather View 32 v70,2013-03-03 05:58:00,